Regional Weather Roundup
Issued by NWS

Home | Current Version | Previous Version | Graphics & Text | Print | Product List | Glossary On
Versions: 1 2 3 4 5 6 7 8 9 10 11 12 13 14 15 16 17 18 19 20 21 22 23 24 25 26 27 28 29 30 31 32 33 34 35 36 37 38 39 40 41 42 43 44 45 46 47 48 49 50
000
ASUS43 KBIS 240410
RWRND

NORTH DAKOTA REGIONAL WEATHER ROUNDUP
NATIONAL WEATHER SERVICE BISMARCK ND
1000 PM CST SUN NOV 23 2014

NOTE: "FAIR" INDICATES FEW OR NO CLOUDS BELOW 12,000 FEET WITH NO
SIGNIFICANT WEATHER AND/OR OBSTRUCTIONS TO VISIBILITY.


NDZ001>003-009>011-017-240500-
NORTHWEST NORTH DAKOTA

CITY           SKY/WX    TMP DP  RH WIND       PRES   REMARKS
WILLISTON      CLEAR      7   3  84 NW7       29.82R WCI  -5
MINOT          MOCLDY    12   7  80 NW16G23   29.74R WCI  -5
MINOT AFB      CLOUDY    12   9  85 NW20      29.74S WCI  -6
$$

NDZ018>021-031>035-040>046-240500-
SOUTHWEST NORTH DAKOTA

CITY           SKY/WX    TMP DP  RH WIND       PRES   REMARKS
BISMARCK       CLOUDY    20  13  74 N23G31    29.70R WCI   3
DICKINSON      CLEAR     18  13  80 NW13G23   29.72R WCI   5
GARRISON         N/A     15   9  76 N16G24    29.73R WCI  -1
HETTINGER ARPT CLOUDY    21  15  78 NW23G35   29.73R WCI   5
$$

NDZ004>008-012>016-024-026-027-054-240500-
NORTHEAST NORTH DAKOTA

CITY           SKY/WX    TMP DP  RH WIND       PRES   REMARKS
GRAND FORKS    FLURRIES  17  12  80 N28G35    29.60R WCI  -2
GRND FRKS AFB  FLURRIES  16  13  90 N20       29.61S WCI  -1
DEVILS LAKE    CLOUDY    14   3  62 N16G24    29.63R WCI  -2
$$

NDZ022-023-025-028>030-036>039-047>053-240500-
SOUTHEAST NORTH DAKOTA

CITY           SKY/WX    TMP DP  RH WIND       PRES   REMARKS
FARGO          LGT SNOW  19  15  84 NW24      29.58R FOG     WCI   2
JAMESTOWN      FLURRIES  15   9  76 NW18      29.62R WCI  -2
$$



USA.gov is the U.S. government's official web portal to all federal, state and local government web resources and services.